Regional Weather Roundup
Issued by NWS Little Rock, AR

Home | Current Version | Previous Version | Graphics & Text | Print | Product List | Glossary On
Versions: 1 2 3 4 5 6 7 8 9 10 11 12 13 14 15 16 17 18 19 20 21 22 23 24 25 26 27 28 29 30 31
000
ASUS44 KLZK 262205
RWRLZK

WEATHER ROUNDUP FOR ARKANSAS
NATIONAL WEATHER SERVICE LITTLE ROCK AR
500 PM CDT MON JUN 26 2017

NOTE: "FAIR" INDICATES FEW OR NO CLOUDS BELOW 12,000 FEET WITH NO
SIGNIFICANT WEATHER AND/OR OBSTRUCTIONS TO VISIBILITY.

ARZ001-003-010-029-262300-
NORTHWEST ARKANSAS

CITY           SKY/WX    TMP DP  RH WIND       PRES   REMARKS
FAYETTEVILLE   SUNNY     81  55  40 SE5       30.09F
FORT SMITH     MOSUNNY   86  59  39 S6        30.05F HX  85
HARRISON       CLOUDY    82  61  48 N5        30.11F
BENTONVILLE    SUNNY     82  52  34 W3        30.11F
ROGERS         SUNNY     83  55  38 SW6       30.10F
SILOAM SPGS    MOSUNNY   84  52  32 W3        30.09F
HIGHFILL       SUNNY     84  52  33 SW8       30.10F
SPRINGDALE     SUNNY     82  50  32 SW8       30.12F
$$

ARZ004-005-016-262300-
NORTH CENTRAL ARKANSAS

CITY           SKY/WX    TMP DP  RH WIND       PRES   REMARKS
BATESVILLE     SUNNY     82  61  47 S7        30.09F
FLIPPIN        CLOUDY    82  57  42 N8        30.08F
MTN HOME       CLOUDY    77  62  59 E3        30.10F
$$

ARZ040-041-262300-
WEST CENTRAL ARKANSAS

CITY           SKY/WX    TMP DP  RH WIND       PRES   REMARKS
MENA           MOSUNNY   82  57  42 E5        30.11F
MOUNT IDA      PTSUNNY   79  60  52 CALM      30.08F
$$

ARZ009-017-025-026-028-262300-
NORTHEAST ARKANSAS

CITY           SKY/WX    TMP DP  RH WIND       PRES   REMARKS
CORNING        LGT RAIN  81  61  50 SW6       30.11F
JONESBORO      SUNNY     82  60  47 E6        30.08F
WALNUT RIDGE   SUNNY     82  57  42 CALM      30.09F
BLYTHEVILLE    SUNNY     83  57  41 VRB5      30.09F
$$

ARZ022-023-033-042-044-262300-
CENTRAL ARKANSAS

CITY           SKY/WX    TMP DP  RH WIND       PRES   REMARKS
LITTLE ROCK    CLOUDY    81  62  52 VRB6      30.09F
N LITTLE ROCK    N/A     83  59  43 S5        30.08F
JACKSONVILLE   MOSUNNY   84  64  51 SE6       30.08F HX  85
CONWAY           N/A     86  59  39 VRB5G13   30.06F HX  85
SEARCY         MOSUNNY   85  65  51 S5        30.10F HX  86
HOT SPRINGS    CLOUDY    81  60  48 E7        30.09F
RUSSELLVILLE   SUNNY     84  59  42 CALM      30.07F
CLINTON        FAIR      82  61  47 SW6       30.09F
$$

ARZ036-262300-
EAST ARKANSAS

CITY           SKY/WX    TMP DP  RH WIND       PRES   REMARKS
WEST MEMPHIS   SUNNY     83  59  44 CALM      30.07F
$$

ARZ050-053-066-070-073-262300-
SOUTHWEST ARKANSAS

CITY           SKY/WX    TMP DP  RH WIND       PRES   REMARKS
ARKADELPHIA    FAIR      84  60  44 VRB3      30.07F
CAMDEN         SUNNY     86  61  42 NE9       30.06F HX  86
TEXARKANA      PTSUNNY   84  58  40 E6        30.06F
EL DORADO      SUNNY     86  59  39 NE7       30.06F HX  85
DE QUEEN       CLOUDY    82  63  52 NE6       30.05F
$$

ARZ056-057-069-262300-
SOUTHEAST ARKANSAS

CITY           SKY/WX    TMP DP  RH WIND       PRES   REMARKS
PINE BLUFF     CLOUDY    81  60  48 E3        30.08F
STUTTGART      PTSUNNY  N/A N/A N/A S5        30.10F
MONTICELLO     SUNNY     86  59  39 NE10      30.07F HX  85

$$






USA.gov is the U.S. government's official web portal to all federal, state and local government web resources and services.